WZZ8CA ENZV-EPGD

Flight info

Callsign WZZ8CA
Flight time N/A
Altitude 39000
Route PEVEB DCT TOPLA DCT PENOR N133 DOMAG T240 OGDAV
Aircraft A320/M-VGDW/C

Departure

Time 2026-04-26 18:01
Airport Stavanger Airport, Sola (ENZV)

Arrival

Time N/A
Airport Gdańsk Lech Wałęsa Airport (EPGD)
Time Latitude Longitude Altitude Speed Heading
2026-04-26 18:01 58.78346 6.16815 17000 ft 396 kts 131°
2026-04-26 18:01 58.76552 6.20871 17751 ft 401 kts 131°
2026-04-26 18:02 58.74729 6.24989 18490 ft 406 kts 131°
2026-04-26 18:02 58.73489 6.27786 18913 ft 409 kts 131°
2026-04-26 18:02 58.71018 6.33349 19750 ft 416 kts 131°
2026-04-26 18:02 58.69127 6.37598 20386 ft 420 kts 131°
2026-04-26 18:03 58.67223 6.41867 21017 ft 425 kts 131°
2026-04-26 18:03 58.65278 6.46217 21625 ft 430 kts 131°
2026-04-26 18:03 58.63319 6.50593 22248 ft 435 kts 131°
2026-04-26 18:03 58.61338 6.55008 22840 ft 439 kts 131°
2026-04-26 18:04 58.59328 6.59481 23431 ft 444 kts 132°
2026-04-26 18:04 58.57298 6.63989 24003 ft 449 kts 132°
2026-04-26 18:04 58.55254 6.68521 24555 ft 451 kts 132°
2026-04-26 18:05 58.51158 6.77699 25620 ft 457 kts 128°
2026-04-26 18:05 58.49403 6.82797 26144 ft 460 kts 119°
2026-04-26 18:05 58.48030 6.88327 26633 ft 463 kts 111°
2026-04-26 18:05 58.46804 6.94043 27119 ft 466 kts 112°
2026-04-26 18:06 58.45566 6.99779 27607 ft 469 kts 112°
2026-04-26 18:06 58.44317 7.05540 28072 ft 471 kts 112°
2026-04-26 18:06 58.43057 7.11332 28520 ft 474 kts 112°
2026-04-26 18:06 58.41783 7.17162 28966 ft 477 kts 112°
2026-04-26 18:07 58.40499 7.23016 29377 ft 479 kts 112°
2026-04-26 18:07 58.39221 7.28814 29777 ft 482 kts 112°
2026-04-26 18:07 58.37919 7.34706 30164 ft 485 kts 112°
2026-04-26 18:07 58.37030 7.38718 30412 ft 487 kts 112°
2026-04-26 18:08 58.35254 7.46705 30854 ft 491 kts 112°
2026-04-26 18:08 58.34133 7.51729 31128 ft 493 kts 112°
2026-04-26 18:08 58.32788 7.57747 31490 ft 495 kts 112°
2026-04-26 18:08 58.31443 7.63742 31915 ft 495 kts 112°
2026-04-26 18:09 58.30484 7.68008 32236 ft 494 kts 112°
2026-04-26 18:09 58.29120 7.74063 32683 ft 494 kts 112°
2026-04-26 18:09 58.27764 7.80061 33119 ft 494 kts 113°
2026-04-26 18:09 58.26407 7.86049 33549 ft 493 kts 113°
2026-04-26 18:10 58.25050 7.92020 33958 ft 493 kts 113°
2026-04-26 18:10 58.23691 7.97984 34337 ft 492 kts 113°
2026-04-26 18:10 58.22328 8.03946 34682 ft 492 kts 113°
2026-04-26 18:10 58.20964 8.09899 35009 ft 491 kts 113°
2026-04-26 18:11 58.19601 8.15825 35340 ft 491 kts 113°
2026-04-26 18:11 58.18241 8.21728 35653 ft 491 kts 113°
2026-04-26 18:11 58.16866 8.27680 35962 ft 490 kts 113°
2026-04-26 18:11 58.15496 8.33588 36277 ft 489 kts 113°
2026-04-26 18:12 58.14127 8.39481 36569 ft 489 kts 113°
2026-04-26 18:12 58.12755 8.45367 36871 ft 489 kts 113°
2026-04-26 18:12 58.11381 8.51245 37159 ft 488 kts 113°
2026-04-26 18:12 58.10010 8.57097 37444 ft 488 kts 113°
2026-04-26 18:13 58.08632 8.62960 37713 ft 487 kts 113°
2026-04-26 18:13 58.07254 8.68806 37974 ft 487 kts 113°
2026-04-26 18:13 58.05877 8.74633 38238 ft 487 kts 113°
2026-04-26 18:13 58.04959 8.78507 38394 ft 486 kts 113°
2026-04-26 18:14 58.03109 8.86300 38726 ft 486 kts 113°
2026-04-26 18:14 58.01723 8.92117 38936 ft 486 kts 113°
2026-04-26 18:14 58.00338 8.97917 39130 ft 485 kts 113°
2026-04-26 18:15 57.97558 9.09513 39233 ft 484 kts 113°
2026-04-26 18:15 57.94839 9.20791 39233 ft 484 kts 113°
2026-04-26 18:16 57.92049 9.32308 39233 ft 484 kts 113°
2026-04-26 18:16 57.87839 9.49574 39241 ft 484 kts 113°
2026-04-26 18:17 57.85021 9.61052 39241 ft 484 kts 113°
2026-04-26 18:17 57.82194 9.72507 39239 ft 484 kts 113°
2026-04-26 18:18 57.79358 9.83941 39245 ft 484 kts 114°
2026-04-26 18:18 57.76506 9.95376 39245 ft 484 kts 114°
2026-04-26 18:19 57.73663 10.06720 39249 ft 484 kts 114°
2026-04-26 18:19 57.70793 10.18113 39248 ft 484 kts 114°
2026-04-26 18:20 57.67911 10.29494 39246 ft 484 kts 114°
2026-04-26 18:20 57.66051 10.36807 39259 ft 484 kts 114°